Location: Ebersheim
(48.3033°N, 7.4991°E)
Time: 01:19:57
(UTC+00:00)

STARLINK-76 - Pass Details

Date: 27 February 2020
Orbit: 529 x 530 km, 53.0° (Epoch: 05 April)

Event Time Altitude Azimuth Distance (km) Brightness Sun altitude
Rises 19:09:45 0° 288° (WNW) 2,671 8.7 -20.6°
Reaches altitude 10° 19:12:03 10° 295° (WNW) 1,781 7.3 -21.0°
Maximum altitude 19:15:56 45° 9° (N) 730 4.2 -21.6°
Enters shadow 19:16:14 44° 23° (NNE) 740 4.1 -21.7°
